Regional Weather Roundup
Issued by NWS

Home | Current Version | Previous Version | Text Only | Print | Product List | Glossary On
Versions: 1 2 3 4 5 6 7 8 9 10 11 12 13 14 15 16 17 18 19 20 21 22 23 24 25 26 27 28 29 30 31 32 33 34 35 36 37 38 39 40 41 42 43 44 45 46 47 48 49 50
000
ASUS45 KBOI 101410
RWRID

IDAHO REGIONAL WEATHER ROUNDUP
NATIONAL WEATHER SERVICE BOISE ID
700 AM MST SAT DEC 10 2016

NOTE: "FAIR" INDICATES FEW OR NO CLOUDS BELOW 12000 FEET
WITH NO SIGNIFICANT WEATHER AND/OR OBSTRUCTIONS TO VISIBILITY

IDZ012-014-101500-
SOUTHWEST IDAHO


CITY           SKY/WX    TMP DP  RH WIND       PRES   REMARKS
BOISE          CLOUDY    33  32  96 NE7       29.83F FOG     WCI  27
CALDWELL       MIX PCPN  32  31  96 CALM      29.86S FOG
MOUNTAIN HOME  DRIZZLE   35  35 100 E9        29.84F WCI  28
$$

IDZ016-017-101500-
SOUTHCENTRAL IDAHO


CITY           SKY/WX    TMP DP  RH WIND       PRES   REMARKS
BURLEY         LGT RAIN  38  35  89 SW12      29.85F WCI  30
JEROME         LGT RAIN  37  37 100 S3        29.86F FOG
TWIN FALLS     LGT RAIN  39  37  92 S8        29.86F FOG     WCI  33
$$

IDZ019>023-101500-
SOUTHEAST IDAHO


CITY           SKY/WX    TMP DP  RH WIND       PRES   REMARKS
IDAHO FALLS    LGT RAIN  34  32  92 S16       29.84F WCI  24
POCATELLO      LGT RAIN  37  34  89 S9        29.87F WCI  30
REXBURG        CLOUDY    34  33  96 SW13      29.83F WCI  25
$$

IDZ006-010-011-018-031-032-101500-
CENTRAL IDAHO MOUNTAINS


CITY           SKY/WX    TMP DP  RH WIND       PRES   REMARKS
MCCALL         CLOUDY    33  31  92 SE13      29.73F WCI  24
HAILEY         LGT SNOW  32  32 100 SE7       29.82F WCI  26
STANLEY          N/A     33  32  96 SE6       29.76F WCI  28
SALMON         CLOUDY    19  18  93 CALM      29.78F
CHALLIS        LGT SNOW  22  22 100 CALM      29.74F FOG
$$

IDZ002-004-006-007-026-101500-
NORTHERN IDAHO


CITY           SKY/WX    TMP DP  RH WIND       PRES   REMARKS
LEWISTON       LGT SNOW  26  21  81 W13       29.85R WCI  15
LOWELL           N/A     29  25  85 CALM      29.81F
COEUR D`ALENE  LGT SNOW  18  16  93 N14G21    29.79R FOG     WCI   4
MULLAN PASS    LGT SNOW  21  20  96 SW7       29.56F VSB 3/4 WCI  12
$$



USA.gov is the U.S. government's official web portal to all federal, state and local government web resources and services.